EW0105 Weather Reports


Display with metric or nautical units.
time (UTC)temp
F
wind
direction
speed
MPH
gust
MPH
rain 1hr
in
rain 24hr
in
rain mn
in
humidity
%
barometer
mb
20260906103036 70 360 0.0 1.0 0.00 0.00 0.00 100 1013.4
20260906101526 70 360 0.0 0.0 0.00 0.00 0.00 100 1013.3
20260906100009 70 360 0.0 0.0 0.00 0.00 0.00 100 1013.4
20260906094549 70 360 0.0 0.0 0.00 0.00 0.00 100 1013.2
20260906093053 70 360 0.0 0.0 0.00 0.00 0.00 100 1013.2
20260906091533 70 360 0.0 0.0 0.00 0.00 0.00 100 1013.1
20260906090026 70 360 0.0 0.0 0.00 0.00 0.00 100 1013.1
20260906084518 70 360 0.0 0.0 0.00 0.00 0.00 100 1013.0
20260906083013 70 360 0.0 0.0 0.00 0.00 0.00 100 1013.0
20260906081509 71 360 0.0 0.0 0.00 0.00 0.00 100 1012.8
20260906080004 71 360 0.0 0.0 0.00 0.00 0.00 100 1012.8
20260906074602 71 360 0.0 0.0 0.00 0.00 0.00 100 1012.8
20260906073056 70 360 0.0 0.0 0.00 0.00 0.00 100 1012.8
20260906071533 70 360 0.0 1.0 0.00 0.00 0.00 100 1012.8
20260906070029 70 360 0.0 0.0 0.00 0.00 0.00 100 1012.8
20260906064507 69 360 0.0 0.0 0.00 0.00 0.00 100 1013.0
20260906063004 70 360 0.0 0.0 0.00 0.00 0.00 100 1013.1
20260906061541 70 360 0.0 0.0 0.00 0.00 0.00 100 1013.2
20260906060037 71 360 0.0 0.0 0.00 0.00 0.00 100 1013.1
20260906054515 71 360 0.0 0.0 0.00 0.00 0.00 100 1013.0
20260906053011 72 360 0.0 0.0 0.00 0.00 0.00 100 1013.2
20260906051549 73 360 0.0 0.0 0.00 0.00 0.00 100 1013.1
20260906050107 73 360 0.0 1.0 0.00 0.00 0.00 100 1012.8
20260906044524 75 360 0.0 0.0 0.00 0.00 0.00 100 1013.0
20260906043019 76 360 0.0 0.0 0.00 0.00 0.00 100 1012.7
20260906041558 76 360 0.0 0.0 0.00 0.00 0.00 100 1012.6
20260906040105 77 360 0.0 0.0 0.00 0.00 0.00 100 1012.5
20260906034541 78 360 0.0 0.0 0.00 0.00 0.00 100 1012.4
20260906033027 80 360 0.0 0.0 0.00 0.00 0.00 100 1012.4
20260906031505 81 360 0.0 0.0 0.00 0.00 0.00 100 1012.2
20260906024542 82 360 0.0 0.0 0.00 0.00 0.00 100 1012.1
20260906023035 83 360 0.0 0.0 0.00 0.00 0.00 100 1012.0
20260906021519 83 360 0.0 0.0 0.00 0.00 0.00 100 1011.7
20260906020014 84 360 0.0 0.0 0.00 0.00 0.00 100 1011.4
20260906014516 84 360 0.0 0.0 0.00 0.00 0.00 100 1011.2
20260906013005 85 360 0.0 0.0 0.00 0.00 0.00 100 1010.7
20260906011502 85 360 0.0 0.0 0.00 0.00 0.00 100 1010.6
20260906010057 86 360 0.0 0.0 0.00 0.00 0.00 100 1010.6
20260906004554 86 360 0.0 0.0 0.00 0.00 0.00 100 1010.3
20260906003048 87 360 0.0 0.0 0.00 0.00 0.00 2 1010.4
20260906001546 88 360 0.0 0.0 0.00 0.00 0.00 15 1010.3
20260906000028 90 360 0.0 0.0 0.00 0.00 0.00 29 1010.2
20260905234528 90 360 0.0 0.0 0.00 0.00 0.00 38 1010.2
20260905233015 91 360 0.0 0.0 0.00 0.00 0.00 43 1010.1
20260905231510 91 360 0.0 0.0 0.00 0.00 0.00 45 1010.0
20260905230115 92 360 0.0 1.0 0.00 0.00 0.00 47 1009.9
20260905224551 93 360 0.0 0.0 0.00 0.00 0.00 48 1009.9
20260905223034 93 360 0.0 0.0 0.00 0.00 0.00 48 1009.8
20260905221535 94 360 0.0 10.0 0.00 0.00 0.00 48 1009.8
20260905220021 95 360 0.0 11.0 0.00 0.00 0.00 47 1009.7
20260905214522 96 360 1.0 11.0 0.00 0.00 0.00 45 1009.7
20260905213019 96 360 0.0 9.0 0.00 0.00 0.00 45 1009.7
20260905211527 96 360 0.0 6.0 0.00 0.00 0.00 45 1009.7
20260905210016 96 360 0.0 0.0 0.00 0.00 0.00 45 1010.0
20260905204516 97 360 0.0 0.0 0.00 0.00 0.00 44 1010.1
20260905203016 96 360 0.0 6.0 0.00 0.00 0.00 45 1010.2
20260905201512 97 360 0.0 0.0 0.00 0.00 0.00 45 1010.4
20260905200104 97 360 0.0 0.0 0.00 0.00 0.00 43 1010.4
20260905194553 97 360 0.0 8.0 0.00 0.00 0.00 44 1010.4
20260905193028 97 360 0.0 0.0 0.00 0.00 0.00 44 1010.5
20260905191527 96 360 0.0 0.0 0.00 0.00 0.00 43 1010.7
20260905190013 96 360 0.0 0.0 0.00 0.00 0.00 44 1010.9
20260905184516 96 360 0.0 0.0 0.00 0.00 0.00 43 1011.1
20260905183008 95 360 0.0 0.0 0.00 0.00 0.00 43 1011.3
20260905181508 95 360 0.0 0.0 0.00 0.00 0.00 44 1011.3
20260905180006 95 360 0.0 0.0 0.00 0.00 0.00 43 1011.5
20260905174505 94 360 0.0 0.0 0.00 0.00 0.00 44 1011.5
20260905173005 95 360 0.0 0.0 0.00 0.00 0.00 43 1011.7
20260905171503 95 360 0.0 0.0 0.00 0.00 0.00 43 1011.8
20260905170044 95 360 0.0 0.0 0.00 0.00 0.00 41 1011.7
20260905164542 94 360 0.0 0.0 0.00 0.00 0.00 41 1012.1
20260905163022 94 360 0.0 1.0 0.00 0.00 0.00 41 1012.2
20260905161521 94 360 0.0 0.0 0.00 0.00 0.00 40 1012.2
20260905160004 93 360 0.0 0.0 0.00 0.00 0.00 39 1012.4
20260905154607 93 360 0.0 0.0 0.00 0.00 0.00 37 1012.2
20260905153039 92 360 0.0 0.0 0.00 0.00 0.00 35 1012.3
20260905151537 91 360 0.0 0.0 0.00 0.00 0.00 32 1012.4
20260905150018 90 360 0.0 0.0 0.00 0.00 0.00 29 1012.5
20260905144518 89 360 0.0 0.0 0.00 0.00 0.00 26 1012.3
20260905143055 89 360 0.0 0.0 0.00 0.00 0.00 25 1012.2
20260905141549 87 360 0.0 0.0 0.00 0.00 0.00 19 1012.3
20260905140027 86 134 0.0 0.0 0.00 0.00 0.00 12 1012.4
20260905134530 85 360 0.0 0.0 0.00 0.00 0.00 100 1012.4
20260905133001 83 360 0.0 0.0 0.00 0.00 0.00 100 1012.5
20260905131558 82 360 0.0 0.0 0.00 0.00 0.00 100 1012.5
20260905130036 81 360 0.0 0.0 0.00 0.00 0.00 100 1012.6
20260905124532 80 360 0.0 0.0 0.00 0.00 0.00 100 1012.5
20260905123011 79 360 0.0 0.0 0.00 0.00 0.00 100 1012.5
20260905121506 78 360 0.0 0.0 0.00 0.00 0.00 100 1012.3
20260905120052 77 360 0.0 0.0 0.00 0.00 0.00 100 1012.3
20260905114546 0 0.0 0.0 0.00 0.00 0.00 1012.2
20260905113052 0 0.0 0.0 0.00 0.00 0.00 1012.1
20260905111538 0 0.0 0.0 0.00 0.00 0.00 1012.0
20260905110036 0 0.0 0.0 0.00 0.00 0.00 1011.9
20260905104529 0 0.0 0.0 0.00 0.00 0.00 1011.9